Voltar ao catálogo

CZ-6A DEB

AtivoSSO
NORAD 55514·DEBRIS·🇨🇳 China

Lançado Nov 11, 2022 de Taiyuan Satellite Launch Center

Loading…

Próximas Passagens (próximas 24 horas)

TLE

AtualizadoSource: Space-Track

Época: Sep 14, 2026, 10:06 UTC

1 55514U 22151XL  26257.42110983  .00002593  00000-0  13047-2 0  9997
2 55514  98.8601 251.2286 0082468 105.6888 255.3402 14.15522435193673

Acompanhe CZ-6A DEB em tempo real com AllMySat

Download on the App Store